• In Österreich
  • Länderverzeichnis
  • Für 7 Tage
  • Wassertemperatur
  • Satellitenkarten
  • Wetterkarte
  • News
  • Widgets
  • user-avatar
    Anmelden

    Stündliche Wetter Tercan

    Heute, 22 Juli, Sonntag

    Zeit Temperatur Niederschläge Wind Luftdruck Luftfeuchtigkeit
    00:00 +15°C° 0 mm 2 m/S 619 mmHg 83%
    01:00 +15°C° 0 mm 2 m/S 618 mmHg 86%
    02:00 +14°C° 0 mm 2 m/S 618 mmHg 88%
    03:00 +14°C° 0 mm 2 m/S 618 mmHg 91%
    04:00 +14°C° 0,2 mm 2 m/S 618 mmHg 91%
    05:00 +14°C° 0,2 mm 2 m/S 618 mmHg 90%
    06:00 +14°C° 0,2 mm 2 m/S 618 mmHg 89%
    07:00 +16°C° 0,1 mm 2 m/S 619 mmHg 80%
    08:00 +18°C° 0,1 mm 2 m/S 619 mmHg 70%
    09:00 +20°C° 0,1 mm 2 m/S 620 mmHg 61%
    10:00 +21°C° 0,6 mm 2 m/S 620 mmHg 56%
    11:00 +24°C° 0,6 mm 2 m/S 620 mmHg 50%
    12:00 +25°C° 0,6 mm 2 m/S 620 mmHg 45%
    13:00 +25°C° 0,2 mm 3 m/S 620 mmHg 45%
    14:00 +25°C° 0,2 mm 3 m/S 620 mmHg 44%
    15:00 +26°C° 0,2 mm 3 m/S 620 mmHg 44%
    16:00 +25°C° 0,2 mm 3 m/S 620 mmHg 47%
    17:00 +24°C° 0,2 mm 3 m/S 619 mmHg 50%
    18:00 +22°C° 0,2 mm 3 m/S 619 mmHg 54%
    19:00 +21°C° 0,2 mm 3 m/S 619 mmHg 61%
    20:00 +19°C° 0,2 mm 3 m/S 619 mmHg 69%
    21:00 +17°C° 0,2 mm 2 m/S 618 mmHg 76%
    22:00 +17°C° 0,1 mm 2 m/S 618 mmHg 79%
    23:00 +16°C° 0,1 mm 2 m/S 618 mmHg 81%

    Morgen, 23 Juli, Montag

    Zeit Temperatur Niederschläge Wind Luftdruck Luftfeuchtigkeit
    00:00 +16°C° 0,1 mm 2 m/S 618 mmHg 84%
    01:00 +15°C° 0 mm 2 m/S 618 mmHg 87%
    02:00 +14°C° 0 mm 2 m/S 617 mmHg 89%
    03:00 +14°C° 0 mm 2 m/S 617 mmHg 92%
    04:00 +14°C° 0 mm 2 m/S 617 mmHg 91%
    05:00 +14°C° 0 mm 2 m/S 617 mmHg 91%
    06:00 +14°C° 0 mm 2 m/S 617 mmHg 90%
    07:00 +16°C° 0 mm 2 m/S 618 mmHg 81%
    08:00 +18°C° 0 mm 2 m/S 618 mmHg 72%
    09:00 +19°C° 0 mm 2 m/S 619 mmHg 63%
    10:00 +21°C° 0,1 mm 2 m/S 619 mmHg 57%
    11:00 +23°C° 0,1 mm 2 m/S 619 mmHg 51%
    12:00 +25°C° 0,1 mm 2 m/S 619 mmHg 45%
    13:00 +25°C° 0 mm 2 m/S 619 mmHg 43%
    14:00 +25°C° 0 mm 2 m/S 619 mmHg 41%
    15:00 +26°C° 0 mm 3 m/S 619 mmHg 39%
    16:00 +25°C° 0 mm 3 m/S 619 mmHg 41%
    17:00 +25°C° 0 mm 3 m/S 619 mmHg 43%
    18:00 +24°C° 0 mm 3 m/S 618 mmHg 45%
    19:00 +21°C° 0 mm 3 m/S 618 mmHg 53%
    20:00 +19°C° 0 mm 2 m/S 618 mmHg 61%
    21:00 +17°C° 0 mm 2 m/S 617 mmHg 69%
    22:00 +17°C° 0 mm 2 m/S 617 mmHg 72%
    23:00 +16°C° 0 mm 1 m/S 617 mmHg 76%

    übermorgen, 24 Juli, Dienstag

    Zeit Temperatur Niederschläge Wind Luftdruck Luftfeuchtigkeit
    00:00 +15°C° 0 mm 1 m/S 617 mmHg 80%
    01:00 +15°C° 0 mm 1 m/S 617 mmHg 82%
    02:00 +14°C° 0 mm 1 m/S 616 mmHg 83%
    03:00 +14°C° 0 mm 1 m/S 616 mmHg 85%
    04:00 +14°C° 0 mm 1 m/S 616 mmHg 84%
    05:00 +14°C° 0 mm 1 m/S 616 mmHg 82%
    06:00 +15°C° 0 mm 1 m/S 617 mmHg 81%
    07:00 +18°C° 0 mm 1 m/S 617 mmHg 70%
    08:00 +21°C° 0 mm 1 m/S 618 mmHg 59%
    09:00 +23°C° 0 mm 1 m/S 619 mmHg 48%
    10:00 +25°C° 0 mm 1 m/S 619 mmHg 42%
    11:00 +26°C° 0 mm 2 m/S 620 mmHg 37%
    12:00 +28°C° 0 mm 2 m/S 620 mmHg 31%
    13:00 +29°C° 0 mm 2 m/S 620 mmHg 28%
    14:00 +30°C° 0 mm 2 m/S 620 mmHg 26%
    15:00 +30°C° 0 mm 3 m/S 620 mmHg 24%
    16:00 +30°C° 0 mm 3 m/S 620 mmHg 24%
    17:00 +30°C° 0 mm 2 m/S 620 mmHg 25%
    18:00 +29°C° 0 mm 2 m/S 620 mmHg 26%
    19:00 +27°C° 0 mm 2 m/S 619 mmHg 31%
    20:00 +24°C° 0 mm 1 m/S 618 mmHg 36%
    21:00 +21°C° 0 mm 1 m/S 617 mmHg 41%
    22:00 +21°C° 0 mm 1 m/S 617 mmHg 41%
    23:00 +20°C° 0 mm 1 m/S 617 mmHg 41%

    25 Juli, Mittwoch

    Zeit Temperatur Niederschläge Wind Luftdruck Luftfeuchtigkeit
    00:00 +20°C° 0 mm 1 m/S 617 mmHg 41%
    01:00 +19°C° 0 mm 1 m/S 617 mmHg 41%
    02:00 +19°C° 0 mm 1 m/S 616 mmHg 40%
    03:00 +19°C° 0 mm 1 m/S 616 mmHg 40%
    04:00 +18°C° 0 mm 2 m/S 616 mmHg 41%
    05:00 +18°C° 0 mm 2 m/S 617 mmHg 42%
    06:00 +18°C° 0 mm 2 m/S 617 mmHg 43%
    07:00 +21°C° 0 mm 3 m/S 618 mmHg 37%
    08:00 +25°C° 0 mm 3 m/S 619 mmHg 32%
    09:00 +28°C° 0 mm 4 m/S 620 mmHg 27%
    10:00 +29°C° 0 mm 5 m/S 620 mmHg 24%
    11:00 +30°C° 0 mm 6 m/S 620 mmHg 22%
    12:00 +32°C° 0 mm 7 m/S 620 mmHg 19%
    13:00 +33°C° 0 mm 7 m/S 620 mmHg 18%
    14:00 +33°C° 0 mm 7 m/S 620 mmHg 17%
    15:00 +33°C° 0 mm 8 m/S 620 mmHg 16%
    16:00 +32°C° 0 mm 7 m/S 620 mmHg 17%
    17:00 +30°C° 0 mm 6 m/S 620 mmHg 18%
    18:00 +30°C° 0 mm 5 m/S 619 mmHg 20%
    19:00 +27°C° 0 mm 4 m/S 619 mmHg 24%
    20:00 +24°C° 0 mm 3 m/S 618 mmHg 28%
    21:00 +20°C° 0 mm 2 m/S 618 mmHg 32%
    22:00 +20°C° 0 mm 1 m/S 617 mmHg 35%
    23:00 +19°C° 0 mm 1 m/S 617 mmHg 38%

    26 Juli, Donnerstag

    Zeit Temperatur Niederschläge Wind Luftdruck Luftfeuchtigkeit
    00:00 +18°C° 0 mm 1 m/S 617 mmHg 41%
    01:00 +18°C° 0 mm 1 m/S 617 mmHg 43%
    02:00 +16°C° 0 mm 1 m/S 617 mmHg 45%
    03:00 +16°C° 0 mm 1 m/S 617 mmHg 47%
    04:00 +16°C° 0 mm 1 m/S 617 mmHg 48%
    05:00 +16°C° 0 mm 1 m/S 617 mmHg 49%
    06:00 +16°C° 0 mm 1 m/S 617 mmHg 50%
    07:00 +20°C° 0 mm 1 m/S 619 mmHg 42%
    08:00 +23°C° 0 mm 1 m/S 620 mmHg 34%
    09:00 +26°C° 0 mm 1 m/S 621 mmHg 26%
    10:00 +27°C° 0 mm 1 m/S 621 mmHg 23%
    11:00 +29°C° 0 mm 1 m/S 621 mmHg 20%
    12:00 +30°C° 0 mm 2 m/S 621 mmHg 17%
    13:00 +31°C° 0 mm 2 m/S 621 mmHg 16%
    14:00 +31°C° 0 mm 2 m/S 621 mmHg 15%
    15:00 +33°C° 0 mm 3 m/S 621 mmHg 13%
    16:00 +33°C° 0 mm 3 m/S 621 mmHg 15%
    17:00 +31°C° 0 mm 3 m/S 621 mmHg 17%
    18:00 +30°C° 0 mm 3 m/S 621 mmHg 19%
    19:00 +27°C° 0 mm 2 m/S 620 mmHg 26%
    20:00 +24°C° 0 mm 2 m/S 619 mmHg 32%
    21:00 +21°C° 0 mm 1 m/S 618 mmHg 38%
    22:00 +20°C° 0 mm 1 m/S 618 mmHg 43%
    23:00 +20°C° 0 mm 1 m/S 618 mmHg 48%

    27 Juli, Freitag

    Zeit Temperatur Niederschläge Wind Luftdruck Luftfeuchtigkeit
    00:00 +19°C° 0 mm 1 m/S 618 mmHg 53%
    01:00 +18°C° 0 mm 1 m/S 618 mmHg 58%
    02:00 +16°C° 0 mm 1 m/S 617 mmHg 62%
    03:00 +16°C° 0 mm 1 m/S 617 mmHg 66%
    04:00 +16°C° 0 mm 1 m/S 617 mmHg 68%
    05:00 +16°C° 0 mm 1 m/S 618 mmHg 70%
    06:00 +16°C° 0 mm 1 m/S 618 mmHg 73%
    07:00 +20°C° 0 mm 1 m/S 619 mmHg 62%
    08:00 +23°C° 0 mm 1 m/S 620 mmHg 52%
    09:00 +25°C° 0 mm 1 m/S 620 mmHg 42%
    10:00 +27°C° 0 mm 1 m/S 621 mmHg 35%
    11:00 +29°C° 0 mm 1 m/S 621 mmHg 28%
    12:00 +30°C° 0 mm 1 m/S 621 mmHg 21%
    13:00 +31°C° 0 mm 1 m/S 621 mmHg 19%
    14:00 +32°C° 0 mm 1 m/S 621 mmHg 18%
    15:00 +32°C° 0 mm 2 m/S 621 mmHg 17%
    16:00 +31°C° 0 mm 2 m/S 621 mmHg 20%
    17:00 +31°C° 0 mm 2 m/S 621 mmHg 24%
    18:00 +30°C° 0 mm 2 m/S 621 mmHg 28%
    19:00 +27°C° 0 mm 2 m/S 620 mmHg 39%
    20:00 +24°C° 0 mm 2 m/S 619 mmHg 50%
    21:00 +21°C° 0 mm 2 m/S 619 mmHg 61%
    22:00 +20°C° 0 mm 2 m/S 619 mmHg 68%
    23:00 +19°C° 0 mm 2 m/S 618 mmHg 75%
    Mehr zeigen